Weather in Poselok Chelyuskintsev

Russia / Tyumen Oblast     55°45′44″N   69°37′46″E
temp.,
°C
wind,
m/s
gust,
m/s
humid.,
%
clouds,
%
prec.,
mm/h
press.,
hPa
HPBL,
m
24 september, fri
fri2423:00+4w2270100 0.0 102966
02:00+4w2576100 0.0 1029181
05:00+4w3676100 0.0 1029171
08:00+6w3771100 0.0 1029291
11:00+7w5861100 0.0 1029547
14:00+10w6749100 0.0 10291160
17:00+10w4752100 0.0 1028431
20:00+7w3563100 0.0 102893
25 september, sat
sat2523:00+6w3370100 0.0 102842
02:00+4w23744 0.0 102725
05:00+3w34781 0.0 102761
08:00+6wnw35681 0.0 1026167
11:00+11nw35500 0.0 1025750
14:00+13nnw454727 0.0 10241488
17:00+8ne5764100 0.0 1024440
20:00+6ene610664 0.0 1026497
26 september, sun
sun2623:00+2ene38815 0.0 1026224
02:000ene48834 0.0 1027178
05:00−1ene36835 0.0 1028125
08:00+1e47795 0.0 1028298
11:00+6e67475 0.0 1027810
14:00+8e67425 0.0 10271190
17:00+7ene57506 0.0 10271023
20:00+2ene511685 0.0 1028270
27 september, mon
mon2723:00+1e613745 0.0 1028457
02:00−1e411835 0.0 1028273
05:000e6138365 0.0 1027450
08:00+3e6116151 0.0 10261071
11:00+6e8104960 0.0 10251339
14:00+8e8104578 0.0 10241654
17:00+6ene81158100 0.0 10241355
20:00+5e71159100 0.0 10251418
28 september, tue
tue2823:00+5ene61163100 0.0 1023846
02:00+4ene71169100 0.0 1022843
05:00+3ene7138488 0.0 1022778
08:00+4ene71166100 0.0 10211358
11:00+5ene91260100 0.0 10201386
14:00+6ene81154100 0.0 10181523
17:00+6ne71255100 0.0 10171520
20:00+5ne71263100 0.0 10171012